TimeEDT,TemperatureF,Dew PointF,Humidity,Sea Level PressureIn,VisibilityMPH,Wind Direction,Wind SpeedMPH,Gust SpeedMPH,PrecipitationIn,Events,Conditions,WindDirDegrees,DateUTC
12:50 AM,53.6,53.6,100,-9999,0.1,West,9.2,-,N/A,Fog,Fog,280,2013-08-28 04:50:00
1:54 AM,51.8,50.0,94,-9999,40.0,West,8.1,-,N/A,,Partly Cloudy,270,2013-08-28 05:54:00
2:55 AM,51.8,50.0,94,-9999,40.0,West,8.1,-,N/A,,Partly Cloudy,280,2013-08-28 06:55:00
3:52 AM,51.8,50.0,94,-9999,40.0,West,9.2,-,N/A,,Partly Cloudy,280,2013-08-28 07:52:00
4:53 AM,51.8,51.8,100,-9999,0.2,WNW,10.4,-,N/A,Fog,Fog,290,2013-08-28 08:53:00
5:52 AM,50.0,50.0,100,-9999,0.2,NW,11.5,-,N/A,Fog,Fog,310,2013-08-28 09:52:00
6:54 AM,50.0,50.0,100,-9999,0.2,West,8.1,-,N/A,Fog,Fog,280,2013-08-28 10:54:00
7:51 AM,53.6,50.0,88,-9999,25.0,WNW,3.5,-,N/A,,Partly Cloudy,290,2013-08-28 11:51:00
8:50 AM,53.6,51.8,94,-9999,25.0,East,2.3,-,N/A,,Mostly Cloudy,100,2013-08-28 12:50:00
9:51 AM,55.4,51.8,88,-9999,0.2,Calm,Calm,-,N/A,Fog,Patches of Fog,0,2013-08-28 13:51:00
10:52 AM,55.4,53.6,94,-9999,0.1,Calm,Calm,-,N/A,Fog-Rain,Light Rain Showers,0,2013-08-28 14:52:00
11:55 AM,53.6,53.6,100,-9999,0.1,WNW,3.5,-,N/A,Fog-Rain,Light Rain Showers,290,2013-08-28 15:55:00
12:54 PM,55.4,53.6,94,-9999,0.2,Calm,Calm,-,N/A,Fog,Fog,0,2013-08-28 16:54:00
1:51 PM,55.4,53.6,94,-9999,1.0,Calm,Calm,-,N/A,Rain,Light Rain Showers,0,2013-08-28 17:51:00
2:52 PM,57.2,53.6,88,-9999,3.0,WNW,8.1,-,N/A,,Overcast,290,2013-08-28 18:52:00
3:53 PM,60.8,55.4,82,-9999,5.0,WNW,5.8,-,N/A,,Mostly Cloudy,300,2013-08-28 19:53:00
4:53 PM,57.2,53.6,88,-9999,5.0,North,3.5,-,N/A,,Mostly Cloudy,350,2013-08-28 20:53:00
5:52 PM,55.4,51.8,88,-9999,10.0,NE,11.5,-,N/A,,Mostly Cloudy,40,2013-08-28 21:52:00
6:56 PM,53.6,51.8,94,-9999,10.0,NNE,10.4,-,N/A,,Overcast,20,2013-08-28 22:56:00
7:49 PM,51.8,50.0,94,-9999,20.0,ENE,20.7,-,N/A,,Overcast,70,2013-08-28 23:49:00
8:54 PM,50.0,50.0,100,-9999,0.1,East,18.4,-,N/A,Fog-Rain,Light Rain Showers,90,2013-08-29 00:54:00
9:55 PM,50.0,50.0,100,-9999,0.0,East,18.4,-,N/A,Fog-Rain,Light Rain Showers,100,2013-08-29 01:55:00
10:56 PM,48.2,48.2,100,-9999,0.0,ESE,23.0,-,N/A,Fog,Fog,110,2013-08-29 02:56:00
11:55 PM,50.0,50.0,100,-9999,0.1,ESE,19.6,-,N/A,Fog,Fog,120,2013-08-29 03:55:00